Location: Plainartige
(45.6866°N, 1.7993°E)
Time: 03:08:58
(UTC+00:00)

deb r/b Ablestar - Pass Details

Date: 03 October 2021
Orbit: 844 x 997 km, 67.7° (Epoch: 16 October)

Event Time Altitude Azimuth Distance (km) Brightness Sun altitude
Rises 19:33:57 0° 329° (NNW) 3,416 ? -22.4°
Reaches altitude 10° 19:36:24 10° 330° (NNW) 2,484 ? -22.8°
Maximum altitude 19:42:07 82° 59° (ENE) 877 ? -23.8°
Enters shadow 19:43:30 54° 138° (SE) 1,043 ? -24.0°
